Weather History for Milton, FL

Change the Weather History Date:

Wednesday, January 22, 2014

  Actual Average (KNSE) Record (KNSE)
Temperature  
Mean Temperature 38 °F -  
Max Temperature 50 °F 59 °F 75 °F (2006)
Min Temperature 26 °F 40 °F 25 °F (2009)
Degree Days  
Heating Degree Days 27    
Moisture  
Dew Point 16 °F    
Average Humidity 49    
Maximum Humidity 79    
Minimum Humidity 20    
Precipitation  
Precipitation 0.00 in - - ()
Sea Level Pressure  
Sea Level Pressure 30.16 in    
Wind  
Wind Speed 7 mph (NNW)    
Max Wind Speed 14 mph    
Max Gust Speed -    
Visibility 10 miles    
Events      
Averages and records for this station are not official NWS values.
T = Trace of Precipitation, MM = Missing Value Source: NWS Daily Summary

Daily Weather History Graph

Daily Weather History Graph

Search for Another Location

Airport:

Trip Planner

Search our weather history database for the weather conditions in past years. The results will help you decide how hot, cold, wet, or windy it might be!

Date:

Astronomy

Jan. 22, 2014 Rise Set
Actual Time 6:44 AM CST 5:15 PM CST
Civil Twilight 6:18 AM CST 5:41 PM CST
Nautical Twilight 5:49 AM CST 6:10 PM CST
Astronomical Twilight 5:20 AM CST 6:39 PM CST
Moon 11:17 PM CST (1/22) 10:12 AM CST (1/22)
Length of Visible Light 11h 22m
Length of Day
10h 31m
Waning Gibbous, 65% of the Moon is Illuminated
Jan 22
Waning Gibbous
Jan 23
Last Quarter
Jan 30
New
Feb 6
First Quarter
Feb 14
Full

Hourly Weather History & Observations

Time (CST) Temp. Windchill Dew Point Humidity Pressure Visibility Wind Dir Wind Speed Gust Speed Precip Events Conditions
12:56 AM 30.0 °F 21.7 °F 16.0 °F 56% 30.13 in 10.0 mi NNW 9.2 mph - N/A   Clear
1:56 AM 28.9 °F 22.8 °F 16.0 °F 58% 30.14 in 10.0 mi NNW 5.8 mph - N/A   Clear
2:56 AM 28.0 °F 19.3 °F 16.0 °F 61% 30.14 in 10.0 mi NW 9.2 mph - N/A   Clear
3:56 AM 28.0 °F 19.3 °F 15.1 °F 58% 30.15 in 10.0 mi NNW 9.2 mph - N/A   Clear
4:56 AM 27.0 °F 18.0 °F 15.1 °F 61% 30.16 in 10.0 mi NNW 9.2 mph - N/A   Clear
5:56 AM 27.0 °F 15.6 °F 15.1 °F 61% 30.18 in 10.0 mi NNW 13.8 mph - N/A   Clear
6:56 AM 26.1 °F 16.8 °F 15.1 °F 63% 30.19 in 10.0 mi North 9.2 mph - N/A   Clear
7:56 AM 28.9 °F 19.8 °F 15.1 °F 56% 30.20 in 10.0 mi North 10.4 mph - N/A   Clear
8:56 AM 32.0 °F 23.0 °F 14.0 °F 48% 30.22 in 10.0 mi NNE 11.5 mph - N/A   Clear
9:56 AM 36.0 °F 31.1 °F 12.0 °F 37% 30.21 in 10.0 mi Variable 5.8 mph - N/A   Clear
11:56 AM 44.1 °F 40.8 °F 8.1 °F 23% 30.17 in 10.0 mi North 5.8 mph - N/A   Clear
12:56 PM 46.4 °F 44.3 °F 6.8 °F 20% 30.14 in 10.0 mi Variable 4.6 mph - N/A   Partly Cloudy
1:56 PM 48.2 °F - 8.6 °F 20% 30.13 in 10.0 mi WNW 8.1 mph - N/A   Partly Cloudy
2:56 PM 50.0 °F - 10.4 °F 20% 30.11 in 10.0 mi North 5.8 mph - N/A   Partly Cloudy
3:56 PM 50.0 °F - 10.4 °F 20% 30.13 in 10.0 mi Variable 6.9 mph - N/A   Partly Cloudy
4:56 PM 46.4 °F 45.2 °F 12.2 °F 25% 30.14 in 10.0 mi NW 3.5 mph - N/A   Partly Cloudy
5:56 PM 42.8 °F - 15.8 °F 34% 30.13 in 10.0 mi Calm Calm - N/A   Partly Cloudy
6:56 PM 37.0 °F - 21.0 °F 52% 30.16 in 10.0 mi Calm Calm - N/A   Partly Cloudy
7:56 PM 37.0 °F - 23.0 °F 57% 30.17 in 10.0 mi Calm Calm - N/A   Partly Cloudy
8:56 PM 30.9 °F 27.5 °F 23.0 °F 72% 30.19 in 10.0 mi SW 3.5 mph - N/A   Partly Cloudy
9:56 PM 34.0 °F 29.8 °F 25.0 °F 70% 30.18 in 10.0 mi WNW 4.6 mph - N/A   Partly Cloudy
10:56 PM 34.0 °F 29.8 °F 25.0 °F 70% 30.19 in 10.0 mi WNW 4.6 mph - N/A   Scattered Clouds
11:56 PM 32.0 °F 28.7 °F 26.1 °F 79% 30.19 in 10.0 mi NW 3.5 mph - N/A   Clear